ONEWEB-0544 (55144 NORAD) Tracking and Keplerian Element Data

This shows tracking and keplerian element data for the satellite.

Feedback or suggestion? Click here.




ElementValue
Catalog55144
NameONEWEB-0544
Epoch Orbit130
Epoch Day13.91667824
Epoch Year2023
RAAN284.1419
Inclination86.5108
Eccentricity0.0012709
Argument of Perigee208.5761
Mean Anonmoly65.8626
Mean Motion14.91624762
Decay Rate-0.00049226
L11 55144U 23004E 23013.91667824 -.00049226 00000+0 -49405-2 0 9998
L22 55144 86.5108 284.1419 0012709 208.5761 65.8626 14.91624762 1305



Live tracking and technical data element details for ONEWEB-0544 (NORAD 55144). ONEWEB-0544 can be tracked NOW for your location showing map with azimuth and elevation plus other details from your city location.







IsCatalogInMostPopularTable: catalog: 55144, numindb: 3
Update: records affected: 1



GetName: 55144 ONEWEB-0544

Hit Count: updated at: Tue, 07 Feb 2023 15:00:05 GMT